Location: Trapani
(38.0170°N, 12.4830°E)
Time: 09:35:59
(UTC+02:00)

ISS - Visible Passes

Search period start: 08 May 2021 00:00
Search period end: 18 May 2021 00:00
Orbit: 418 x 421 km, 51.6° (Epoch: 08 May)

Date Brightness Start Highest point End Pass type
(mag) Time Alt. Az. Time Alt. Az. Time Alt. Az.
08 May -0.5 02:49:24 12° N 02:49:24 12° N 02:50:13 10° N visible
09 May -0.7 05:15:26 10° NNW 05:17:11 13° NNE 05:18:56 10° NE visible
10 May -0.4 04:28:36 10° N 04:29:29 11° NNE 04:30:21 10° NNE visible
11 May -1.2 05:16:42 10° NNW 05:19:32 24° NNE 05:22:21 10° E visible
12 May -0.7 04:29:33 10° NNW 04:31:55 17° NNE 04:34:17 10° ENE visible
13 May -0.5 03:42:30 10° NNW 03:44:16 13° NNE 03:46:01 10° NE visible
13 May -3.1 05:18:16 10° NW 05:21:38 61° NE 05:24:58 10° ESE visible
14 May -0.2 02:55:40 10° N 02:56:34 11° NNE 02:57:27 10° NNE visible
14 May -2.1 04:30:58 10° NW 04:34:09 36° NNE 04:37:18 10° ESE visible
14 May -2.9 21:13:17 10° SSW 21:16:12 28° SE 21:19:09 10° ENE visible
14 May -1.8 22:49:57 10° W 22:52:58 30° NNW 22:55:40 12° NNE visible
15 May -1.3 03:43:45 10° NNW 03:46:36 24° NNE 03:49:26 10° E visible
15 May -3.3 05:20:18 10° WNW 05:23:29 39° SW 05:26:39 10° SSE visible
15 May -2.7 22:02:12 10° WSW 22:05:27 47° NW 22:08:43 10° NE visible
15 May -0.3 23:41:33 10° NW 23:42:55 12° NNW 23:44:19 10° N visible
16 May -0.8 02:56:36 10° NNW 02:58:59 18° NNE 03:01:21 10° ENE visible
16 May -3.9 04:32:45 10° NW 04:36:07 73° SW 04:39:28 10° SE visible
16 May -3.7 21:14:38 10° SW 21:18:00 84° NW 21:21:21 10° NE visible
16 May -0.5 22:53:09 10° WNW 22:55:14 15° NNW 22:57:20 10° NNE visible
17 May -0.4 02:09:33 10° NNW 02:11:19 13° NNE 02:13:05 10° NE visible
17 May -3.3 03:45:20 10° NW 03:48:41 62° NE 03:52:02 10° ESE visible
17 May -1.8 05:23:37 10° WSW 05:25:06 12° SW 05:26:35 10° SSW visible
17 May -1.0 22:04:59 10° WNW 22:07:35 20° NNW 22:10:13 10° NNE visible
